GEFSMW_500_meanwind_228.txt.gz
Wind_Speed
12 12 12 12 12 12 11 11 11 10 10 10 9 9 9 8 8 7 7 6 5 4 4 2 1 1 0 1 1 2 3 2 3 4 4 4 5 5 6 6 7 8 9
11 11 11 11 12 11 11 11 10 10 11 10 10 10 9 8 8 8 7 6 5 4 3 3 2 1 1 1 2 2 2 3 3 4 5 5 5 5 6 7 8 9 10
9 10 9 10 10 10 10 10 10 10 11 11 11 10 10 10 9 8 8 7 6 5 3 2 2 1 1 2 2 3 3 4 4 4 5 5 6 7 7 8 9 10 10
7 8 8 8 8 9 9 9 9 10 10 10 11 10 10 10 9 8 8 8 7 6 5 4 3 3 2 3 3 3 4 5 5 5 6 6 8 8 8 9 9 9 10
5 7 7 7 7 7 8 9 9 9 9 10 10 10 9 9 9 8 8 7 7 7 6 5 5 5 3 3 3 4 5 6 7 7 8 8 8 9 9 9 10 10 10
4 5 6 6 6 7 7 7 8 8 8 8 9 8 9 9 9 9 8 7 7 6 6 6 6 6 5 5 5 5 6 7 7 8 8 9 9 9 10 10 11 11 11
3 3 4 5 5 5 5 6 6 6 6 7 7 7 7 7 7 8 7 7 7 7 6 6 6 6 6 6 6 6 6 6 7 8 9 9 10 10 11 11 11 12 13
4 3 3 2 3 3 3 3 4 4 4 5 5 5 5 5 6 6 6 6 6 6 6 6 7 7 7 7 7 7 7 7 8 8 10 10 11 12 12 13 13 14 14
6 5 4 3 2 1 2 2 2 2 2 2 2 2 3 3 4 4 5 5 6 6 6 7 7 8 8 8 8 8 8 8 9 9 10 12 13 13 14 14 14 15 15
8 7 7 5 4 3 2 2 2 2 2 1 1 2 2 3 5 4 5 5 6 6 7 8 8 8 8 9 9 9 9 9 10 11 12 13 14 15 15 15 16 17 17
9 8 8 7 6 5 5 5 4 4 3 3 3 3 4 4 4 5 6 7 7 8 8 9 9 9 9 10 10 11 11 12 12 13 14 14 14 15 16 16 17 17 18
10 10 10 8 8 7 7 7 7 6 5 5 5 5 6 6 5 6 7 8 8 9 10 10 10 11 11 12 13 13 14 14 15 15 15 16 16 16 17 17 18 18 19
11 11 10 10 9 8 8 8 8 8 7 7 7 7 8 8 8 8 8 9 10 11 12 12 12 12 13 14 14 15 15 15 16 16 17 17 16 17 17 18 18 19 19
11 11 11 11 11 10 10 9 10 10 10 9 10 10 10 10 10 10 11 12 12 12 13 13 14 14 14 15 16 16 16 16 16 17 17 18 17 18 19 19 20 20 20
12 12 12 13 13 13 13 13 13 13 13 12 12 12 12 12 12 12 13 14 14 14 15 15 15 16 16 17 17 17 17 17 18 18 19 19 19 19 20 20 21 22 22
15 16 15 15 16 16 16 16 15 15 15 15 14 14 14 13 13 14 15 15 16 16 17 17 17 17 18 18 18 18 19 19 20 20 21 21 21 21 22 22 23 24 24
19 19 18 18 18 18 18 18 18 18 18 18 18 16 16 16 16 17 18 18 18 19 19 20 20 20 20 20 20 20 21 21 22 23 23 23 23 24 24 24 25 25 25
21 20 20 20 21 21 21 21 21 21 21 20 19 19 19 20 20 21 21 21 22 22 22 22 22 22 22 22 22 22 23 23 24 24 24 25 25 26 27 27 26 27 27
23 23 23 23 23 23 24 24 24 24 22 22 22 22 23 23 24 24 24 24 24 24 24 24 25 25 24 24 24 24 25 25 26 26 26 26 26 27 28 29 29 28 28
26 25 24 25 26 26 26 26 27 27 25 25 25 25 26 26 26 27 27 27 27 27 27 27 27 27 27 27 27 27 27 27 28 28 28 29 29 29 29 30 30 30 29
26 27 27 27 28 28 28 29 29 29 29 28 28 28 29 29 29 30 30 30 30 30 31 30 30 30 29 29 29 29 29 29 29 30 30 31 31 30 30 30 29 30 30
28 29 29 30 30 30 31 31 31 31 31 30 30 31 31 31 32 32 32 32 33 33 33 32 32 31 31 30 31 31 32 31 31 31 31 31 32 30 30 30 30 31 30
30 30 31 32 32 33 33 32 32 32 32 32 33 33 34 34 33 33 33 33 33 33 33 31 31 31 31 32 32 33 32 32 32 32 31 32 31 32 32 32 32 31 31
32 32 33 33 34 34 34 34 33 32 33 33 33 34 35 35 34 33 33 33 32 32 33 31 31 31 32 33 33 32 32 32 32 32 32 32 33 33 33 32 32 32 32
33 34 34 34 35 35 35 35 35 35 33 33 33 33 34 34 34 33 33 33 33 34 34 33 33 32 33 34 34 34 34 34 34 34 34 34 34 34 33 34 34 33 33
35 35 35 35 36 35 35 35 35 35 34 34 33 33 33 33 33 33 33 34 35 35 35 34 33 33 34 35 35 36 36 36 35 34 34 34 33 34 34 34 34 34 34

GEFSMW_500_meanwind_234.txt.gz
Wind_Speed
10 10 10 10 10 9 9 8 7 7 7 7 7 7 7 6 6 5 5 5 4 4 3 3 3 2 2 2 2 2 3 3 3 4 4 5 5 6 6 6 7 8 8
10 10 9 9 9 9 9 8 7 7 7 7 7 7 7 6 6 5 5 4 4 4 3 2 2 2 1 2 2 2 3 3 3 3 4 5 5 6 6 7 8 8 9
8 9 9 8 8 8 8 7 7 7 7 6 7 7 7 7 7 6 5 5 4 4 3 2 1 1 1 2 3 3 2 2 3 3 4 4 5 6 7 8 9 10 10
8 8 8 8 7 7 7 7 7 6 6 6 6 6 7 7 6 6 6 5 5 4 4 3 3 2 1 1 1 2 3 4 5 5 6 6 6 7 8 9 9 10 11
7 7 7 7 6 6 6 6 5 6 6 6 6 5 6 6 6 6 5 5 5 5 4 4 3 3 2 1 2 2 3 4 5 5 6 7 8 9 9 10 10 11 11
7 6 6 6 6 5 5 5 4 5 5 5 5 5 4 5 5 5 5 4 4 4 4 4 4 4 3 2 3 4 4 5 5 6 6 7 8 8 9 10 11 11 12
6 6 6 6 5 4 4 4 3 3 4 4 4 4 3 3 3 4 4 3 3 3 3 3 3 4 4 4 5 5 5 5 5 6 7 8 9 9 11 11 12 13 13
7 7 6 6 5 4 3 3 2 2 3 3 3 2 3 3 2 2 2 2 3 3 2 3 3 4 4 5 5 6 6 6 6 7 8 9 10 11 11 12 13 13 14
8 8 7 6 6 5 4 4 3 3 3 4 3 2 3 3 3 3 2 2 3 3 3 3 4 4 5 6 7 7 7 7 7 8 9 10 11 11 12 12 13 14 15
9 9 8 8 7 6 6 5 4 4 4 4 4 4 4 4 4 4 4 4 5 5 5 5 6 7 8 8 9 9 9 9 9 10 10 11 12 13 13 14 15 16 16
10 10 9 9 9 8 7 7 7 7 6 6 5 6 5 5 5 5 5 6 7 7 7 8 9 10 10 11 11 11 10 10 10 11 12 13 14 15 15 16 17 17 18
12 11 11 11 11 10 9 9 9 9 8 8 7 7 7 7 7 7 7 9 9 10 10 10 10 11 12 12 13 12 12 13 13 13 14 15 15 16 17 17 18 18 19
13 12 12 12 12 12 11 11 11 11 11 10 10 10 9 9 10 10 10 11 12 12 12 12 12 12 13 14 14 14 14 14 14 15 16 16 17 18 19 19 19 20 21
15 15 14 14 13 13 13 12 13 12 12 12 12 12 12 12 13 13 13 14 14 14 14 14 14 15 15 15 15 15 15 15 16 16 17 18 18 19 20 20 21 22 23
16 17 16 15 14 14 14 14 14 15 15 15 15 15 14 14 15 15 16 16 16 16 15 16 16 17 17 17 17 17 17 17 17 18 18 18 19 20 21 22 23 24 25
18 17 17 17 16 16 17 17 17 17 18 17 17 18 17 18 18 18 18 18 18 17 16 16 17 18 19 18 18 18 18 19 18 19 20 20 21 22 23 24 25 25 25
19 19 19 19 19 19 19 19 20 20 21 20 20 21 20 21 21 21 21 20 20 20 18 18 18 19 20 20 20 20 20 20 20 21 22 23 23 23 24 25 26 26 26
21 21 21 21 21 22 22 22 23 23 23 24 24 24 24 24 24 24 24 23 23 22 20 20 21 21 22 22 23 22 22 22 23 23 24 25 25 26 26 26 27 27 27
24 23 23 23 23 24 24 25 26 26 27 26 26 26 26 27 28 27 26 25 26 25 25 24 24 25 26 26 26 25 25 26 26 26 28 28 28 28 28 28 28 28 29
26 26 26 26 26 26 26 27 27 27 28 28 28 29 29 30 30 29 29 28 28 28 29 29 28 28 28 29 29 28 28 28 29 29 30 30 31 30 29 28 28 29 30
29 29 29 28 28 28 28 29 29 29 29 30 30 31 31 31 31 30 30 30 30 30 31 31 30 30 31 30 30 29 30 30 30 31 31 31 31 31 31 30 30 30 30
32 32 31 31 31 31 31 30 31 31 31 32 32 32 32 33 32 32 32 32 33 33 33 33 33 33 33 32 32 31 31 32 32 31 31 31 31 32 32 32 32 32 32
34 34 34 34 34 33 33 33 33 33 33 33 33 33 33 34 35 34 34 34 34 35 35 35 34 34 33 33 33 33 32 33 33 32 32 32 32 32 33 33 33 33 33
35 35 35 35 35 35 35 35 35 35 35 34 34 35 35 35 36 35 35 35 36 35 35 35 35 35 35 35 35 34 33 33 33 32 32 32 33 33 34 34 34 34 34
36 35 36 36 36 36 36 36 37 37 37 37 37 37 36 36 37 37 37 37 37 37 36 35 36 35 36 36 35 35 34 34 34 34 34 34 34 35 36 35 35 35 35
36 36 36 37 37 37 37 37 38 38 38 38 38 38 37 37 38 38 38 38 38 38 37 37 37 37 37 37 37 37 36 35 35 34 34 35 35 36 36 36 36 35 36

GEFSMW_500_meanwind_240.txt.gz
Wind_Speed
13 13 13 12 12 12 11 11 10 10 10 9 8 7 7 6 5 5 5 3 3 2 1 1 1 1 1 2 2 2 2 3 3 4 4 5 5 5 5 5 5 6 7
12 12 12 12 12 12 12 11 10 10 9 9 9 8 7 7 6 6 5 4 3 3 2 1 1 2 2 2 2 2 3 4 4 4 4 4 5 5 5 6 7 7 8
11 11 11 11 11 11 11 11 10 10 9 9 8 8 7 7 6 6 5 5 4 4 3 3 3 3 2 3 2 3 3 3 4 4 5 5 5 6 6 7 8 8 9
10 10 10 10 10 10 10 10 10 9 9 8 7 7 7 6 6 6 6 6 6 5 5 4 4 3 3 3 3 3 4 4 5 5 5 5 5 6 7 8 8 9 10
10 9 9 9 9 9 9 9 9 9 8 8 7 6 6 6 5 5 5 5 5 5 5 5 5 5 5 4 4 4 5 5 6 7 7 7 7 7 8 8 9 9 9
9 9 8 8 8 8 8 8 8 8 8 7 7 6 5 5 4 5 4 4 4 4 4 4 5 5 6 5 5 5 6 6 7 7 7 7 8 8 8 9 9 10 11
9 9 8 8 8 8 8 8 7 7 7 7 6 6 5 4 4 4 4 4 4 4 4 5 5 6 6 6 6 7 7 7 7 7 8 8 8 9 9 10 11 11 12
10 9 8 8 8 8 7 7 7 7 7 6 6 5 5 4 4 4 4 4 4 4 4 5 5 7 7 7 7 8 8 8 8 8 8 9 9 10 11 12 12 12 13
11 11 10 8 8 8 8 7 7 7 6 6 6 6 4 4 5 5 4 4 4 5 5 6 6 8 8 9 9 9 9 9 9 10 10 10 11 12 13 13 14 14 14
13 12 11 10 9 9 9 8 8 8 7 7 7 6 6 5 5 6 5 5 5 5 6 7 8 9 9 10 10 10 11 11 11 11 11 12 12 13 14 15 16 16 16
15 13 12 11 11 11 10 10 8 8 8 8 8 8 8 8 7 7 7 7 7 8 8 9 9 10 11 11 12 12 12 12 13 13 13 13 14 15 16 16 17 17 17
15 14 13 13 13 12 11 11 10 9 10 10 10 10 10 9 9 8 8 9 9 10 10 10 11 12 12 13 13 13 13 13 13 13 14 14 15 16 17 17 18 19 19
16 15 14 14 14 14 13 12 11 11 12 11 11 11 11 10 10 10 10 10 11 11 12 13 14 14 14 15 15 15 15 14 15 15 16 16 17 18 18 18 19 20 20
17 17 17 15 15 15 15 14 13 13 13 13 13 13 13 13 12 13 13 13 13 14 14 15 16 16 16 17 17 17 16 17 17 17 18 18 19 20 20 20 21 21 22
18 19 18 17 17 17 17 17 15 15 15 15 15 15 15 15 15 15 15 15 15 16 16 17 18 18 18 19 18 18 18 18 18 18 19 20 21 22 22 22 23 23 23
19 20 19 19 19 19 19 19 18 18 17 18 18 18 18 18 18 18 18 18 18 18 18 18 19 20 20 21 20 20 20 19 19 20 21 22 23 23 23 23 24 25 25
22 23 22 21 20 20 20 20 20 20 20 20 20 21 21 21 21 21 21 21 21 21 21 21 22 22 22 23 23 23 23 22 22 22 22 23 24 24 24 24 25 26 26
23 22 21 22 22 22 21 21 22 22 22 22 22 23 24 24 23 24 24 23 24 24 23 24 24 24 25 25 26 26 26 24 24 24 24 24 25 26 26 26 27 28 29
24 23 23 24 25 25 24 24 25 25 25 25 25 25 26 26 26 26 26 26 27 27 27 26 26 26 26 26 27 27 27 27 26 27 28 27 28 28 29 29 29 30 30
25 25 25 25 26 27 27 27 27 27 28 28 27 27 28 28 28 28 29 29 29 29 29 29 29 28 28 28 29 29 30 29 29 30 30 30 30 31 31 31 31 31 31
27 27 27 27 28 28 29 29 29 29 30 30 30 30 31 30 30 30 31 31 32 32 32 32 31 32 31 31 31 32 31 31 31 32 32 32 32 32 32 32 32 32 32
29 29 29 29 30 31 31 32 32 32 33 32 33 33 33 32 32 32 32 33 34 34 34 34 34 34 33 33 34 34 34 34 34 34 34 34 33 33 33 33 33 33 34
30 31 32 32 32 32 32 33 33 34 34 33 33 34 34 34 34 34 34 34 35 35 36 36 36 36 36 35 35 36 36 37 37 37 36 35 35 34 35 35 35 35 35
31 32 32 33 34 34 33 33 34 34 34 34 34 35 35 35 35 36 36 36 36 36 37 37 37 36 36 37 38 39 39 39 38 38 38 36 36 37 37 36 37 37 36
33 33 33 34 35 35 35 35 36 36 35 35 35 35 35 36 36 37 37 37 37 37 37 38 38 38 38 38 39 39 39 39 39 38 38 38 38 38 38 38 38 37 37
34 34 35 36 36 36 37 37 37 37 37 36 36 36 37 37 37 38 38 38 37 38 38 39 40 39 39 38 38 38 39 39 39 39 38 39 39 38 38 39 38 38 37

GEFSMW_500_meanwind_246.txt.gz
Wind_Speed
13 14 14 14 14 13 13 13 12 11 10 9 8 8 7 6 6 6 6 6 5 5 5 4 4 3 3 3 2 2 2 2 2 2 2 3 3 4 4 5 5 6 5
11 12 13 13 13 12 12 12 12 11 10 9 9 7 7 6 6 6 6 5 5 5 5 4 3 3 3 3 2 2 2 1 2 2 3 3 3 3 4 5 5 6 6
10 10 11 11 11 12 12 11 11 10 10 9 8 7 6 6 5 5 5 5 5 4 5 4 4 4 4 3 3 2 2 1 1 2 2 3 3 3 4 4 4 5 6
8 9 9 9 10 10 10 11 11 10 10 9 8 7 7 6 5 5 5 5 5 5 6 6 5 5 4 4 3 2 1 0 1 1 2 3 3 3 3 4 5 5 6
7 7 7 7 8 9 9 9 9 9 9 8 8 7 6 6 5 5 5 5 5 5 5 5 5 5 4 4 3 2 2 1 1 2 3 3 4 4 5 5 5 6 6
6 6 6 5 6 6 7 8 8 8 8 7 7 6 6 5 5 4 4 4 4 4 4 4 4 4 3 3 3 3 3 2 2 3 3 3 4 5 6 6 6 6 6
5 5 5 5 4 5 6 6 6 6 6 6 6 5 4 4 4 3 3 3 3 3 2 2 2 2 2 2 2 3 3 3 4 4 4 4 5 5 6 6 6 6 7
4 5 5 5 4 5 4 4 4 4 5 5 4 4 3 3 2 1 1 1 1 1 0 0 1 1 2 2 2 3 4 4 5 5 5 6 6 6 7 7 7 7 8
4 4 5 5 5 5 5 4 5 5 4 4 4 3 3 2 2 1 1 1 1 2 2 3 3 3 3 3 4 4 5 6 6 6 6 7 7 8 8 9 9 9 10
5 5 5 5 6 6 6 5 5 5 5 5 4 3 3 4 3 3 3 3 3 4 4 4 4 4 4 5 6 6 7 7 7 8 8 8 8 9 9 10 11 11 12
7 6 6 6 7 7 7 7 6 6 6 6 6 5 5 5 5 4 4 5 5 6 6 6 6 6 6 7 8 8 8 9 10 10 10 11 11 11 11 11 12 12 13
9 8 8 8 8 9 9 9 9 9 8 7 7 6 6 7 7 7 6 7 8 8 8 8 8 9 9 10 10 11 11 12 13 12 12 13 13 13 13 13 14 14 15
11 10 10 9 11 11 11 11 11 11 10 10 9 9 8 9 9 9 9 10 11 11 11 11 11 11 12 12 13 13 14 14 15 15 15 15 15 15 15 15 15 16 17
13 12 12 12 12 13 14 13 13 13 12 12 12 12 11 11 12 11 12 12 13 13 14 14 14 14 14 15 15 16 16 16 16 17 17 17 18 17 16 17 17 18 18
15 14 14 15 15 14 14 14 14 14 14 14 15 14 14 14 14 14 14 15 15 16 16 16 17 17 17 17 17 17 17 17 18 18 18 19 20 20 19 19 19 20 21
16 16 17 17 16 16 15 16 16 16 16 16 16 16 16 16 16 16 16 17 17 17 18 18 19 19 19 20 20 20 20 20 20 21 21 22 23 23 22 21 22 22 22
18 17 18 19 18 17 17 17 18 18 18 18 18 18 19 19 20 20 20 20 19 19 20 20 20 20 21 22 23 23 23 23 23 23 23 23 23 23 23 23 23 24 24
21 20 20 19 18 19 20 20 19 20 21 21 21 21 22 23 23 23 23 23 23 22 22 23 24 24 24 24 25 25 25 25 25 26 26 24 24 24 24 23 23 24 25
23 23 23 22 21 22 22 22 22 22 22 22 23 24 24 25 25 25 25 25 25 25 25 26 26 27 26 27 27 27 27 26 26 27 27 26 26 26 26 26 26 27 27
24 24 23 23 23 24 24 23 24 24 25 25 26 27 27 27 27 27 28 28 28 28 28 28 28 29 29 30 30 30 30 30 30 30 29 29 29 29 29 30 29 28 28
25 26 25 24 24 25 25 26 26 26 27 27 27 28 28 28 28 29 29 30 30 31 31 31 31 31 32 32 32 33 33 33 32 32 32 31 31 31 32 32 31 30 31
26 26 25 25 25 25 26 26 27 28 28 28 28 29 29 30 30 30 30 31 32 33 33 33 33 34 34 35 35 35 34 34 34 34 34 33 34 34 33 33 32 32 33
27 28 28 27 27 28 28 27 27 28 29 30 30 30 31 31 31 31 32 33 33 34 34 34 34 35 35 36 36 36 36 36 36 36 36 36 35 36 35 34 34 34 34
29 29 29 28 29 30 30 29 29 29 29 30 31 32 32 32 33 33 34 34 34 34 35 35 35 36 36 37 37 37 37 37 38 38 37 37 37 37 36 36 36 36 35
28 28 29 29 30 30 30 30 30 30 31 31 32 33 34 34 34 34 34 34 35 35 35 35 36 36 36 37 37 38 38 38 38 38 37 38 38 37 37 37 36 37 36
29 29 29 30 30 30 31 32 32 32 32 32 33 34 34 34 34 35 35 35 36 36 36 35 35 35 35 35 36 37 37 37 38 38 38 38 38 38 38 38 38 38 38